Regional Weather Roundup
Issued by NWS

Home | Current Version | Previous Version | Text Only | Print | Product List | Glossary Off
Versions: 1 2 3 4 5 6 7 8 9 10 11 12 13 14 15 16 17 18 19 20 21 22 23 24 25 26 27 28 29 30 31 32 33 34 35 36 37 38 39 40 41 42 43 44 45 46 47 48 49 50

000
ASUS43 KLMK 251610
RWRKY
KENTUCKY REGIONAL WEATHER ROUNDUP
NATIONAL WEATHER SERVICE LOUISVILLE KY
1200 PM EDT SAT APR 25 2015

NOTE "FAIR" INDICATES FEW OR NO CLOUDS BELOW 12,000 FEET
WITH NO SIGNIFICANT WEATHER AND/OR OBSTRUCTIONS TO VISIBILITY.

KYZ001>023-026-027-061>063-070>075-251700-
WESTERN AND SOUTH CENTRAL KENTUCKY

CITY           SKY/WX    TMP DP  RH WIND       PRES   REMARKS
PADUCAH        CLOUDY    66  60  81 SW12      29.60S
HENDERSON      CLOUDY    63  55  77 S10       29.57F
OWENSBORO      PTSUNNY   63  59  87 S13       29.61F
HOPKINSVILLE   PTSUNNY   71  61  69 S14       29.62F
BOWLING GREEN  CLOUDY    66  58  75 S13       29.65F
GLASGOW        DRIZZLE   61  57  85 S8        29.68S
$$

KYZ024-025-028>034-038-045-046-053-251700-
NORTH CENTRAL KENTUCKY

CITY           SKY/WX    TMP DP  RH WIND       PRES   REMARKS
LOUISVILLE/SDF LGT RAIN  53  51  93 SE6       29.66F
LOUISVILLE/LOU LGT RAIN  52  51  97 SE6       29.67F FOG
FORT KNOX      CLOUDY    55  53  96 E6        29.63F
$$

KYZ035>037-039>044-047>052-055>060-089>105-251700-
NORTHEAST KENTUCKY

CITY           SKY/WX    TMP DP  RH WIND       PRES   REMARKS
LEXINGTON      CLOUDY    50  49  96 SE8       29.69F FOG
COVINGTON      LGT RAIN  48  46  93 E9        29.71F FOG
FRANKFORT      CLOUDY    50  49  96 E7        29.67F FOG
$$

KYZ054-064>069-076>088-106>120-251700-
SOUTHEAST KENTUCKY

CITY           SKY/WX    TMP DP  RH WIND       PRES   REMARKS
JACKSON        LGT RAIN  48  47  96 CALM      29.73S VSB 1/2
LONDON         CLOUDY    62  51  67 S8        29.71F
SOMERSET       CLOUDY    61  54  77 S9        29.71F
MIDDLESBORO    CLOUDY    56  52  86 CALM      29.77F
MONTICELLO     CLOUDY    64  58  81 S8        29.73F
$$




USA.gov is the U.S. government's official web portal to all federal, state and local government web resources and services.